Location: Mahannah Oil Field
(37.4664°N, 96.6003°W)
Time: 02:18:44
(UTC+00:00)

A-11 Canister half - Pass Details

Date: 28 January 2021
Orbit: 1525 x 1684 km, 47.3° (Epoch: 02 March)

Event Time Altitude Azimuth Distance (km) Brightness Sun altitude
Rises 18:49:01 0° 220° (SW) 4,666 12.2 34.5°
Reaches altitude 10° 18:52:05 10° 218° (SW) 3,681 11.9 34.5°
Maximum altitude 19:01:10 63° 139° (SE) 1,672 10.2 34.3°
Drops below altitude 10° 19:10:24 10° 61° (ENE) 3,737 10.8 34.1°
Sets 19:13:31 0° 59° (ENE) 4,740 11.2 34.0°
